Regional Weather Roundup
Issued by NWS

Home | Current Version | Previous Version | Text Only | Print | Product List | Glossary On
Versions: 1 2 3 4 5 6 7 8 9 10 11 12 13 14 15 16 17 18 19 20 21 22 23 24 25 26 27
000
ASUS46 KPQR 290410
RWROR

OREGON REGIONAL WEATHER ROUNDUP
NATIONAL WEATHER SERVICE PORTLAND OR
900 PM PDT SUN MAY 28 2017

NOTE: "FAIR" INDICATES FEW OR NO CLOUDS BELOW 12,000 FEET WITH
NO SIGNIFICANT WEATHER AND/OR OBSTRUCTIONS TO VISIBILITY.

ORZ001>013-290500-
NORTHWEST OREGON


CITY           SKY/WX    TMP DP  RH WIND       PRES   REMARKS
ASTORIA        CLOUDY    53  48  83 W7        30.12F
NEWPORT        CLOUDY    54  52  94 CALM        N/A
PORTLAND       PTCLDY    71  56  58 NW7       30.00R
VANCOUVER WA   CLEAR     71  57  61 N3        30.00R
SCAPPOOSE      CLEAR     68  56  65 N9        30.00R
HILLSBORO      CLEAR     72  56  57 W9        29.99R
AURORA         CLEAR     65  53  65 SW7       30.03R
MCMINNVILLE    CLEAR     57  50  77 SW16G26   30.03R
SALEM          CLEAR     61  51  70 W12       30.04R
CORVALLIS      CLEAR     55  48  76 W9        30.07R
EUGENE         PTCLDY    59  53  80 SW10      30.06R
$$

ORZ021-028-290500-
SOUTHWEST OREGON


CITY           SKY/WX    TMP DP  RH WIND       PRES   REMARKS
NORTH BEND     CLOUDY    55  52  88 N6        30.15F
BROOKINGS      CLOUDY    53  51  93 NW5       30.12S
ROSEBURG       CLEAR     68  53  58 N9        30.06R
SEXTON SUMMIT  CLEAR     60  52  74 N10       30.13R
MEDFORD        CLEAR     79  56  45 N9        29.99R
$$

ORZ014>016-041-290500-
COLUMBIA GORGE


CITY           SKY/WX    TMP DP  RH WIND       PRES   REMARKS
TROUTDALE      CLEAR     77  57  50 N3        29.99R
HOOD RIVER     CLEAR     72  55  56 CALM      29.96R
THE DALLES     CLEAR     79  50  36 NW3       29.93R
$$

ORZ029>031-041-044-049-050-061>064-502-503-505>511-290500-
EASTERN OREGON


CITY           SKY/WX    TMP DP  RH WIND       PRES   REMARKS
REDMOND        CLEAR     75  37  25 N7        30.04R
BEND           CLEAR     75  39  27 N7        30.01R
PRINEVILLE     CLEAR     73  41  31 N10       30.06R
KLAMATH FALLS  CLEAR     66  42  41 W6        30.08R
HERMISTON      CLEAR     72  52  49 SE3       29.96S
PENDLETON      CLEAR     70  48  45 NE9       30.01S
JOHN DAY       PTCLDY    76  39  26 CALM      30.11R
MEACHAM        CLEAR     61  43  51 CALM      30.16R
LA GRANDE      CLEAR     72  43  35 SW5       30.08S
BAKER CITY     CLEAR     63  44  50 W8        30.12R
BURNS          CLEAR     57  46  66 NE8       30.13S
ROME             N/A     73  34  23 N12       30.12R
ONTARIO        CLEAR     68  42  38 W5        30.07R
$$




USA.gov is the U.S. government's official web portal to all federal, state and local government web resources and services.